TimeEST,TemperatureF,Dew PointF,Humidity,Sea Level PressureIn,VisibilityMPH,Wind Direction,Wind SpeedMPH,Gust SpeedMPH,PrecipitationIn,Events,Conditions,WindDirDegrees,DateUTC
12:54 AM,18.0,-2.9,40,30.29,10.0,NNW,5.8,-,N/A,,Clear,330,2013-01-23 05:54:00
1:54 AM,17.1,-2.0,43,30.31,10.0,Calm,Calm,-,N/A,,Clear,0,2013-01-23 06:54:00
2:54 AM,17.1,-0.9,45,30.31,10.0,Calm,Calm,-,N/A,,Clear,0,2013-01-23 07:54:00
3:54 AM,16.0,1.0,52,30.31,10.0,WNW,3.5,-,N/A,,Clear,300,2013-01-23 08:54:00
4:54 AM,16.0,1.0,52,30.31,10.0,Calm,Calm,-,N/A,,Clear,0,2013-01-23 09:54:00
5:54 AM,14.0,1.9,59,30.32,10.0,Calm,Calm,-,N/A,,Clear,0,2013-01-23 10:54:00
6:54 AM,14.0,3.0,62,30.32,10.0,Calm,Calm,-,N/A,,Clear,0,2013-01-23 11:54:00
7:54 AM,15.1,1.0,54,30.33,10.0,Calm,Calm,-,N/A,,Clear,0,2013-01-23 12:54:00
8:54 AM,19.0,1.0,46,30.34,10.0,WNW,9.2,-,N/A,,Clear,290,2013-01-23 13:54:00
9:54 AM,21.0,-0.9,38,30.34,10.0,NW,8.1,18.4,N/A,,Clear,310,2013-01-23 14:54:00
10:54 AM,23.0,-2.9,32,30.33,10.0,WNW,13.8,20.7,N/A,,Clear,300,2013-01-23 15:54:00
11:54 AM,24.1,-6.0,27,30.30,10.0,NW,11.5,20.7,N/A,,Clear,310,2013-01-23 16:54:00
12:54 PM,24.1,-5.1,28,30.25,10.0,WNW,17.3,25.3,N/A,,Clear,290,2013-01-23 17:54:00
1:54 PM,26.1,-2.9,28,30.23,10.0,WNW,11.5,24.2,N/A,,Clear,290,2013-01-23 18:54:00
2:54 PM,26.1,-2.9,28,30.23,10.0,West,10.4,23.0,N/A,,Clear,270,2013-01-23 19:54:00
3:54 PM,25.0,-2.0,31,30.23,10.0,NW,8.1,19.6,N/A,,Overcast,310,2013-01-23 20:54:00
4:54 PM,24.1,-0.9,34,30.23,10.0,WNW,5.8,-,N/A,,Partly Cloudy,290,2013-01-23 21:54:00
5:54 PM,23.0,-0.0,37,30.25,10.0,Calm,Calm,-,N/A,,Clear,0,2013-01-23 22:54:00
6:54 PM,21.0,7.0,55,30.23,10.0,Calm,Calm,-,N/A,,Overcast,0,2013-01-23 23:54:00
7:54 PM,21.0,8.1,57,30.22,10.0,Calm,Calm,-,N/A,,Overcast,0,2013-01-24 00:54:00
8:54 PM,21.9,5.0,48,30.20,10.0,East,3.5,-,N/A,,Overcast,90,2013-01-24 01:54:00
9:54 PM,21.9,3.9,46,30.20,10.0,Calm,Calm,-,N/A,,Overcast,0,2013-01-24 02:54:00
10:54 PM,21.9,5.0,48,30.20,10.0,Calm,Calm,-,N/A,,Overcast,0,2013-01-24 03:54:00
11:54 PM,23.0,5.0,46,30.19,10.0,Calm,Calm,-,N/A,,Overcast,0,2013-01-24 04:54:00